Tracking 19192 objects as of 21-Jun-2018
HD Live streaming from Space Station
objects crossing your sky now

SAKURA 2A (CS-2A)

Track SAKURA 2A (CS-2A) now!
SAKURA 2A (CS-2A) is classified as:


NORAD ID: 13782
Int'l Code: 1983-006A
Perigee: 35,996.3 km
Apogee: 36,082.5 km
Inclination: 14.5 °
Period: 1,448.7 minutes
Semi major axis: 42410 km
RCS: 5.8102 m2 (large)
Launch date: February 4, 1983
Source: Japan (JPN)
Launch site: TANEGASHIMA SPACE CENTER (TNSTA)
aabbcc
Your satellite tracking list
Your tracking list is empty




NASA's NSSDC Master Catalog

Two Line Element Set (TLE):
1 13782U 83006A   18172.50973079 +.00000013 +00000-0 +00000-0 0  9991
2 13782 014.5454 345.1155 0010155 266.5198 275.4897 00.99401840098845
Source of the keplerian elements: AFSPC